DELTA 1 DEB

Satellite information

Favourite Embed

Satellite Type and Status

DEBRISIN ORBIT

Key statistics

Satellite DELTA 1 DEB at a glance.

Uptime

19342

Days in orbit

Revolutions

≈ 13.1

Per day

Orbit

SSO

Sun Synchronous Orbit

Inclination

98.9

Latest

Satellite identification and parameters

Extended collection of information and parameters for DELTA 1 DEB.

Object identification

Identified? True

Debris? True

Object name: DELTA 1 DEB

International designator: 1972-058JU

Object number (NORAD): 42561

Object ID (CCSDS): 42561

Country: UNITED STATES OF AMERICA (US)

Current information (Y/N): Y

RCS size: SMALL

Orbital parameters

Period: 110.08 minutes

Inclination: 98.8799 deg

SMA: 7608.499 km

Apoapsis: 1588.003 km

Periapsis: 872.725 km

RAAN: 23.5348 deg

Eccentricy: 0.0470052

Argument of periapsis: 178.9457 deg

Mean anomaly: 334.6753 deg

Mean motion: 13.08140241 rev/day

Mean motion (dot): 0.00000747 rev/day2

B* drag term: 0.0013438 1/REarth

Two-line elements (TLE)

Creation date: July 6, 2025, 6:05 p.m.

Reference frame: TEME

Reference center: EARTH

Epoch: July 6, 2025, 1:05 a.m. UTC

TLE line 0: 0 DELTA 1 DEB

TLE line 1: 1 42561U 72058JU 25187.04521279 .00000747 00000-0 13438-2 0 9992

TLE line 2: 2 42561 98.8799 23.5348 0470052 178.9457 334.6753 13.08140241553574

Live tracking on map

Real-time ground track for satellite DELTA 1 DEB.

In-orbit conjunctions

A list of the most updated potential collisions computed for object DELTA 1 DEB.

Target Orbit TCA Probability of collision Miss distance Type
SL-3 R/B LEO 2024-10-11 01:11:30 0.0001931591 690.0 (m) ROCKET BODY

Associated space launch

Earth observation satellite

DELTA 1 DEB was lifted into orbit during the mission ‘Delta 0900 | Landsat 1’, on board a Delta 0900 space rocket.

The launch took place on July 23, 1972, 6:06 p.m. from Space Launch Complex 2W.

For more information about the launch, click the button.

Launch to space Delta 0900 | Landsat 1
Delta 0900 | Landsat 1

Agency: N/A

Status: Launch Successful

Launch date: July 23, 1972, 6:06 p.m. UTC

Rocket: Delta 0900

Launch pad: Space Launch Complex 2W

Location: Vandenberg SFB, CA, USA

...

Latest news about this satellite

There are no fresh news available about this satellite. Check back as we update our databases every day.


Newsletter sign-up

Weekly statistics, charts and insights to help you stay on top of the space industry.